Theta_e
317 319 319 319 319 318 316 315 315 315 315 315 315 315 314 313 313 313 314 313 314 313 312 311 309 308 306
317 318 318 318 316 315 315 315 315 315 315 315 314 314 314 314 314 312 312 312 311 312 312 311 310 308 307
314 315 315 314 313 313 314 314 314 314 314 314 314 313 314 313 313 313 313 312 311 310 310 311 310 309 307
314 313 313 312 311 312 312 313 314 314 314 314 313 313 312 312 312 311 311 312 311 311 310 309 309 309 307
313 312 309 308 309 313 312 313 313 314 314 314 313 313 313 312 311 311 311 310 310 310 310 308 308 308 307
313 312 311 313 315 314 312 309 309 313 312 312 312 312 312 312 312 311 310 309 308 307 308 307 307 306 306
313 313 313 314 313 311 312 310 310 311 309 308 310 309 311 311 310 309 309 308 306 305 305 305 305 305 305
314 314 313 314 313 313 313 311 309 308 308 304 307 308 309 308 309 308 307 306 305 304 302 303 304 304 304
314 313 313 312 312 312 309 307 304 305 307 303 304 306 305 307 307 306 305 304 304 303 301 301 302 303 302
312 312 312 311 311 310 310 308 305 301 306 304 304 303 301 304 305 304 303 301 299 299 300 300 301 301 299
310 310 310 310 310 309 308 309 306 305 306 305 303 301 299 299 301 302 301 300 299 298 298 299 300 299 298
307 307 308 308 308 307 306 306 305 305 305 304 302 301 298 294 295 298 298 298 297 296 295 296 298 297 297
305 306 306 306 306 305 304 303 303 302 302 301 300 299 298 295 294 293 294 293 293 292 292 294 297 296 293
303 304 303 303 303 302 301 299 298 297 297 297 297 295 294 293 292 291 291 290 290 289 290 292 293 293 292
301 301 300 300 299 298 297 296 295 292 292 292 292 292 292 291 289 289 288 287 288 288 287 288 289 289 289
299 299 298 296 295 294 294 294 292 291 290 289 288 288 287 286 287 286 286 286 286 286 286 286 286 286 286
296 295 295 293 292 292 291 291 290 289 288 287 286 287 288 289 283 285 285 284 284 284 283 282 281 281 281
Wind_Speed
27 28 24 24 27 34 37 34 33 33 32 33 34 33 33 32 32 31 30 29 32 35 32 25 24 22 22
23 24 28 30 26 26 30 35 36 36 34 34 34 35 35 35 35 35 35 35 34 34 36 35 31 27 25
17 22 24 23 25 23 22 22 25 27 29 29 31 33 35 34 35 35 37 38 37 37 37 38 37 36 29
17 17 22 25 22 21 21 23 24 25 26 27 27 27 30 31 33 34 36 38 40 40 40 40 40 39 37
16 15 13 12 20 20 22 21 22 23 24 26 27 28 29 31 31 33 33 35 37 40 41 40 41 42 41
17 16 19 20 21 22 20 12 4 19 24 28 26 28 31 33 32 31 33 34 33 35 38 40 41 41 41
22 20 20 29 26 22 23 20 16 18 17 17 23 25 26 28 27 28 28 28 29 31 34 37 38 40 40
27 28 28 23 24 24 24 22 19 20 20 9 20 25 29 29 27 27 27 27 26 28 31 33 36 38 39
20 18 18 18 18 21 21 18 9 12 19 17 15 23 26 27 28 26 26 26 26 26 27 30 32 36 34
18 20 20 19 20 21 23 20 13 5 14 14 13 12 5 10 14 16 17 20 23 23 23 25 30 32 32
15 18 19 20 21 21 21 22 21 20 11 14 8 11 9 5 7 12 14 15 17 18 20 22 27 31 28
17 19 19 20 19 19 19 20 21 22 20 19 10 14 10 4 6 7 11 13 15 17 17 20 23 25 28
20 20 17 18 17 18 18 17 16 16 16 17 18 17 16 8 3 4 5 6 10 12 12 16 18 21 14
18 15 16 16 15 17 16 15 12 10 10 13 16 16 12 11 11 9 8 4 5 6 11 12 13 18 20
14 14 14 15 17 17 15 14 10 8 10 10 11 11 11 9 7 7 7 5 4 3 4 7 11 13 15
9 11 15 16 16 16 15 14 15 12 12 13 13 9 5 2 4 5 5 5 4 3 4 5 10 11 14
8 9 11 12 13 15 15 14 13 13 13 14 16 9 4 4 1 4 5 6 5 4 5 7 10 12 13
Wind_Direction
216 213 207 217 225 233 236 237 239 238 240 242 245 248 249 249 248 249 253 255 253 250 250 241 239 240 240
203 205 215 220 228 230 236 238 240 243 243 244 248 250 250 251 251 251 252 255 255 255 252 251 249 241 238
190 200 210 221 226 228 227 232 238 243 245 244 246 250 252 253 253 252 252 254 254 254 254 254 253 251 243
191 187 201 212 215 219 226 232 239 245 252 255 255 256 256 255 255 255 255 254 253 253 254 255 253 251 251
194 190 180 183 204 216 230 240 245 250 250 258 257 261 266 266 265 262 263 261 257 253 254 254 253 251 250
183 195 198 210 225 226 231 234 248 254 256 258 262 265 269 267 267 273 271 269 262 258 254 253 253 253 249
191 201 208 224 226 229 231 231 235 249 263 262 269 271 272 274 275 277 275 275 265 260 257 255 252 252 250
210 217 218 231 230 236 242 244 247 251 254 253 262 267 281 278 278 278 273 271 270 267 258 257 253 250 247
209 219 230 235 237 227 225 224 226 232 245 241 253 270 276 281 284 279 276 272 269 264 259 257 254 247 243
212 223 230 230 229 230 238 228 218 199 233 231 253 258 279 273 275 281 279 269 261 256 254 254 251 244 232
232 232 228 223 229 230 239 244 237 236 238 231 232 230 228 272 259 273 285 288 280 268 252 249 244 232 239
213 218 223 223 228 232 237 240 243 252 259 258 242 232 226 222 247 267 281 288 282 273 264 249 238 248 233
208 215 223 231 230 231 234 236 236 243 247 248 248 249 239 229 230 263 305 295 286 272 265 247 224 199 201
215 223 225 226 226 222 218 216 215 218 221 231 237 239 236 242 251 257 263 261 314 264 240 233 229 236 241
215 218 220 218 214 211 212 200 194 206 201 209 217 225 230 236 226 234 237 239 262 246 233 248 244 244 246
203 210 213 210 203 201 204 203 203 210 199 196 184 169 165 150 212 203 204 212 215 234 251 264 272 269 271
189 197 206 209 202 205 207 206 207 208 206 196 189 182 177 199 162 185 199 209 223 243 259 263 275 285 288